FW2883 Weather Reports


time (UTC)temp
F
wind
direction
speed
knots
gust
knots
rain 1hr
in
rain 24hr
in
rain mn
in
humidity
%
barometer
mb
20260504081517 53 267 1.7 6.1 0.00 0.00 0.00 56 1005.8
20260504044545 49 273 0.0 0.0 0.00 0.00 0.00 62 1007.9
20260504043038 51 273 0.0 0.0 0.00 0.00 0.00 60 1008.0
20260504041536 51 273 0.0 0.0 0.00 0.00 0.00 59 1008.1
20260504040041 51 273 0.0 0.0 0.00 0.00 0.00 58 1008.3
20260504034535 52 273 0.0 0.0 0.00 0.00 0.00 58 1008.5
20260504033046 54 273 0.0 0.0 0.00 0.00 0.00 55 1008.7
20260504031535 57 273 0.0 0.0 0.00 0.00 0.00 50 1009.0
20260504030133 58 273 0.0 0.0 0.00 0.00 0.00 47 1008.9
20260504024542 59 274 0.0 2.6 0.00 0.00 0.00 45 1009.0
20260504023031 61 280 1.7 2.6 0.00 0.00 0.00 43 1008.8
20260504021531 62 286 0.0 2.6 0.00 0.00 0.00 42 1008.7
20260504020030 63 286 0.0 2.6 0.00 0.00 0.00 40 1008.6
20260504014532 64 286 0.9 2.6 0.00 0.00 0.00 38 1008.5
20260504013029 66 286 0.9 2.6 0.00 0.00 0.00 36 1008.5
20260504011528 67 292 0.9 2.6 0.00 0.00 0.00 35 1008.4
20260504010029 69 280 2.6 5.2 0.00 0.00 0.00 34 1008.3
20260504004539 70 284 2.6 8.7 0.00 0.00 0.00 33 1008.3
20260504003029 71 296 4.3 13.0 0.00 0.00 0.00 31 1008.3
20260504001526 72 302 7.8 13.0 0.00 0.00 0.00 29 1008.2
20260504000025 72 321 5.2 9.6 0.00 0.00 0.00 31 1008.2
20260503234523 72 302 7.8 13.9 0.00 0.00 0.00 31 1008.1
20260503233029 73 286 8.7 13.9 0.00 0.00 0.00 31 1008.1
20260503231521 73 273 9.6 13.9 0.00 0.00 0.00 29 1008.2
20260503230021 73 289 7.8 15.6 0.00 0.00 0.00 31 1008.1
20260503224520 73 271 7.0 12.2 0.00 0.00 0.00 30 1008.3
20260503223020 73 297 7.8 15.6 0.00 0.00 0.00 30 1008.1
20260503221518 73 292 7.0 14.8 0.00 0.00 0.00 28 1008.2
20260503220017 73 321 8.7 17.4 0.00 0.00 0.00 26 1008.1
20260503214515 74 304 8.7 15.6 0.00 0.00 0.00 28 1008.0
20260503213018 74 360 7.8 15.6 0.00 0.00 0.00 30 1008.0
20260503211512 73 287 5.2 14.8 0.00 0.00 0.00 33 1008.1
20260503210009 74 333 8.7 14.8 0.00 0.00 0.00 32 1008.1
20260503204509 73 339 7.8 16.5 0.00 0.00 0.00 31 1008.3
20260503203006 73 284 10.4 16.5 0.00 0.00 0.00 34 1008.4
20260503201503 73 299 8.7 15.6 0.00 0.00 0.00 34 1008.5
20260503200002 72 325 8.7 16.5 0.00 0.00 0.00 35 1008.6
20260503194501 72 306 8.7 15.6 0.00 0.00 0.00 34 1008.6
20260503193002 72 311 8.7 19.1 0.00 0.00 0.00 33 1008.7
20260503191558 72 298 8.7 19.1 0.00 0.00 0.00 36 1008.7
20260503190059 72 299 11.3 17.4 0.00 0.00 0.00 34 1008.7
20260503184607 72 327 10.4 19.1 0.00 0.00 0.00 40 1008.9
20260503183054 72 279 8.7 13.9 0.00 0.00 0.00 38 1008.8
20260503181553 71 314 10.4 19.1 0.00 0.00 0.00 38 1008.8
20260503180052 71 269 8.7 16.5 0.00 0.00 0.00 40 1008.8
20260503174604 70 314 9.6 16.5 0.00 0.00 0.00 40 1008.9
20260503173049 70 304 9.6 13.9 0.00 0.00 0.00 40 1009.2
20260503171545 69 265 7.8 15.6 0.00 0.00 0.00 42 1009.3